Location: Sabalos
(43.2860°N, 0.1414°E)
Time: 10:21:32
(UTC+00:00)

BREEZE-M DEB (TANK) - Pass Details

Date: 05 July 2020
Orbit: 328 x 12050 km, 49.6° (Epoch: 05 August)

Event Time Altitude Azimuth Distance (km) Brightness Sun altitude
Rises 22:31:26 0° 288° (WNW) 4,212 7.2 -20.7°
Reaches altitude 10° 22:35:32 10° 298° (WNW) 2,277 5.9 -21.0°
Maximum altitude 22:39:28 32° 4° (N) 772 3.4 -21.2°
Enters shadow 22:40:38 22° 51° (NE) 897 3.4 -21.3°
